Weather History for Rickenbacker, OH

Change the Weather History Date:

Friday, March 14, 2014

  Actual Average Record
Temperature  
Mean Temperature 48 °F -  
Max Temperature 64 °F 48 °F 79 °F (2012)
Min Temperature 31 °F 30 °F 19 °F (2005)
Degree Days  
Heating Degree Days 18    
Moisture  
Dew Point 23 °F    
Average Humidity 40    
Maximum Humidity 58    
Minimum Humidity 21    
Precipitation  
Precipitation 0.00 in - - ()
Sea Level Pressure  
Sea Level Pressure 29.90 in    
Wind  
Wind Speed 14 mph (SSW)    
Max Wind Speed 36 mph    
Max Gust Speed 46 mph    
Visibility 10 miles    
Events Rain    
Averages and records for this station are not official NWS values.
T = Trace of Precipitation, MM = Missing Value Source: NWS Daily Summary

Daily Weather History Graph

Daily Weather History Graph

Search for Another Location

Airport:

Trip Planner

Search our weather history database for the weather conditions in past years. The results will help you decide how hot, cold, wet, or windy it might be!

Date:

Astronomy

Mar. 14, 2014 Rise Set
Actual Time 7:44 AM EDT 7:37 PM EDT
Civil Twilight 7:17 AM EDT 8:04 PM EDT
Nautical Twilight 6:46 AM EDT 8:35 PM EDT
Astronomical Twilight 6:14 AM EDT 9:07 PM EDT
Moon 5:58 PM EDT (3/14) 6:24 AM EDT (3/14)
Length of Visible Light 12h 46m
Length of Day
11h 52m
Waxing Gibbous, 96% of the Moon is Illuminated
Mar 14
Waxing Gibbous
Mar 16
Full
Mar 23
Last Quarter
Mar 30
New
Apr 7
First Quarter

Hourly Weather History & Observations

Time (EDT) Temp. Windchill Dew Point Humidity Pressure Visibility Wind Dir Wind Speed Gust Speed Precip Events Conditions
12:15 AM 34.7 °F 27.5 °F 14.4 °F 43% 30.08 in 10.0 mi South 9.2 mph - N/A   Overcast
12:35 AM 34.7 °F 27.5 °F 14.7 °F 44% 30.08 in 10.0 mi South 9.2 mph - N/A   Overcast
12:55 AM 34.7 °F 26.9 °F 15.1 °F 45% 30.06 in 10.0 mi South 10.4 mph - N/A   Overcast
1:15 AM 33.8 °F 26.4 °F 14.9 °F 46% 30.06 in 10.0 mi South 9.2 mph - N/A   Scattered Clouds
1:35 AM 32.5 °F 25.5 °F 15.8 °F 50% 30.06 in 10.0 mi South 8.1 mph - N/A   Clear
1:55 AM 32.0 °F 24.8 °F 16.3 °F 52% 30.05 in 10.0 mi South 8.1 mph - N/A   Clear
2:15 AM 32.0 °F 24.2 °F 16.7 °F 53% 30.05 in 10.0 mi South 9.2 mph - N/A   Clear
2:35 AM 32.0 °F 24.2 °F 16.9 °F 54% 30.05 in 10.0 mi South 9.2 mph - N/A   Clear
2:55 AM 32.2 °F 25.0 °F 16.9 °F 53% 30.05 in 10.0 mi South 8.1 mph - N/A   Clear
3:15 AM 32.0 °F 25.6 °F 17.4 °F 55% 30.05 in 10.0 mi South 6.9 mph - N/A   Clear
3:35 AM 31.8 °F 24.6 °F 17.6 °F 56% 30.04 in 10.0 mi South 8.1 mph - N/A   Clear
3:55 AM 31.6 °F 24.4 °F 17.6 °F 56% 30.03 in 10.0 mi South 8.1 mph - N/A   Clear
4:15 AM 31.8 °F 23.9 °F 17.8 °F 56% 30.03 in 10.0 mi South 9.2 mph - N/A   Clear
4:35 AM 32.2 °F 24.4 °F 17.6 °F 55% 30.02 in 10.0 mi South 9.2 mph - N/A   Clear
4:55 AM 32.5 °F 24.8 °F 17.4 °F 54% 30.02 in 10.0 mi South 9.2 mph - N/A   Clear
5:15 AM 32.2 °F 24.4 °F 17.4 °F 55% 30.02 in 10.0 mi South 9.2 mph - N/A   Clear
5:35 AM 32.0 °F 24.8 °F 17.4 °F 55% 30.01 in 10.0 mi South 8.1 mph - N/A   Clear
5:55 AM 32.0 °F 25.6 °F 17.4 °F 55% 30.01 in 10.0 mi South 6.9 mph - N/A   Clear
6:15 AM 31.6 °F 24.4 °F 18.0 °F 57% 30.01 in 10.0 mi South 8.1 mph - N/A   Clear
6:35 AM 32.0 °F 24.2 °F 18.3 °F 57% 30.00 in 10.0 mi South 9.2 mph - N/A   Clear
6:55 AM 32.2 °F 25.0 °F 18.9 °F 58% 29.99 in 10.0 mi South 8.1 mph - N/A   Clear
7:15 AM 32.9 °F 24.7 °F 18.7 °F 56% 29.99 in 10.0 mi South 10.4 mph - N/A   Clear
7:35 AM 33.8 °F 25.8 °F 18.9 °F 54% 29.98 in 10.0 mi South 10.4 mph - N/A   Clear
7:55 AM 34.2 °F 25.7 °F 19.2 °F 54% 29.98 in 10.0 mi South 11.5 mph - N/A   Clear
8:15 AM 35.1 °F 27.4 °F 19.6 °F 53% 29.98 in 10.0 mi South 10.4 mph - N/A   Clear
8:35 AM 36.7 °F 29.4 °F 19.8 °F 50% 29.99 in 10.0 mi South 10.4 mph 16.1 mph N/A   Clear
8:55 AM 38.1 °F 30.2 °F 20.1 °F 48% 29.98 in 10.0 mi South 12.7 mph 17.3 mph N/A   Clear
9:15 AM 39.0 °F 31.4 °F 20.1 °F 47% 29.98 in 10.0 mi South 12.7 mph - N/A   Clear
9:35 AM 41.2 °F 33.0 °F 20.7 °F 44% 29.98 in 10.0 mi SSW 16.1 mph 20.7 mph N/A   Clear
9:55 AM 43.2 °F 35.3 °F 21.2 °F 42% 29.98 in 10.0 mi SSW 17.3 mph 23.0 mph N/A   Clear
10:15 AM 45.3 °F 37.8 °F 22.6 °F 41% 29.98 in 10.0 mi SW 18.4 mph 27.6 mph N/A   Clear
10:35 AM 46.9 °F - 23.2 °F 39% 29.98 in 10.0 mi SSW 21.9 mph 26.5 mph N/A   Clear
10:55 AM 48.4 °F - 23.7 °F 38% 29.97 in 10.0 mi SSW 20.7 mph 26.5 mph N/A   Clear
11:15 AM 49.8 °F - 24.4 °F 37% 29.96 in 10.0 mi SSW 19.6 mph 29.9 mph N/A   Clear
11:35 AM 52.0 °F - 25.2 °F 35% 29.95 in 10.0 mi SSW 20.7 mph 27.6 mph N/A   Clear
11:55 AM 53.8 °F - 25.9 °F 34% 29.94 in 10.0 mi SSW 20.7 mph 27.6 mph N/A   Clear
12:15 PM 55.2 °F - 26.1 °F 33% 29.93 in 10.0 mi SSW 21.9 mph 31.1 mph N/A   Clear
12:35 PM 56.1 °F - 26.1 °F 31% 29.92 in 10.0 mi SSW 25.3 mph 31.1 mph N/A   Clear
12:55 PM 56.8 °F - 26.8 °F 32% 29.90 in 10.0 mi SSW 24.2 mph 31.1 mph N/A   Clear
1:15 PM 58.1 °F - 26.8 °F 30% 29.89 in 10.0 mi SSW 24.2 mph 35.7 mph N/A   Clear
1:35 PM 59.5 °F - 26.2 °F 28% 29.88 in 10.0 mi SSW 26.5 mph 33.4 mph N/A   Clear
1:55 PM 61.0 °F - 26.4 °F 27% 29.86 in 10.0 mi SSW 26.5 mph 35.7 mph N/A   Clear
2:15 PM 60.6 °F - 25.9 °F 27% 29.85 in 10.0 mi SSW 27.6 mph 41.4 mph N/A   Clear
2:35 PM 61.5 °F - 25.5 °F 25% 29.83 in 10.0 mi SW 25.3 mph 38.0 mph N/A   Clear
2:55 PM 62.4 °F - 25.0 °F 24% 29.81 in 10.0 mi SW 32.2 mph 40.3 mph N/A   Clear
3:15 PM 62.6 °F - 24.6 °F 24% 29.80 in 10.0 mi SSW 29.9 mph 44.9 mph N/A   Clear
3:35 PM 62.2 °F - 24.1 °F 23% 29.79 in 10.0 mi SSW 32.2 mph 46.0 mph N/A   Clear
3:55 PM 61.9 °F - 24.3 °F 24% 29.78 in 10.0 mi SSW 31.1 mph 44.9 mph N/A   Clear
4:15 PM 63.1 °F - 24.6 °F 23% 29.77 in 10.0 mi SW 29.9 mph 39.1 mph N/A   Clear
4:35 PM 63.7 °F - 23.9 °F 22% 29.76 in 10.0 mi SW 27.6 mph 43.7 mph N/A   Clear
4:55 PM 64.0 °F - 23.4 °F 21% 29.76 in 10.0 mi SSW 35.7 mph 44.9 mph N/A   Clear
5:15 PM 63.5 °F - 23.2 °F 21% 29.75 in 10.0 mi SW 29.9 mph 39.1 mph N/A   Clear
5:35 PM 62.6 °F - 23.5 °F 23% 29.74 in 10.0 mi SSW 28.8 mph 44.9 mph N/A   Clear
5:55 PM 61.5 °F - 23.4 °F 23% 29.73 in 10.0 mi SSW 27.6 mph 38.0 mph N/A   Clear
6:15 PM 60.8 °F - 24.3 °F 25% 29.75 in 10.0 mi SSW 24.2 mph 35.7 mph N/A   Scattered Clouds
6:35 PM 59.9 °F - 24.6 °F 26% 29.74 in 10.0 mi SSW 24.2 mph 34.5 mph N/A   Scattered Clouds
6:55 PM 59.2 °F - 24.8 °F 27% 29.75 in 10.0 mi SSW 20.7 mph 28.8 mph N/A   Clear
7:15 PM 58.5 °F - 25.3 °F 28% 29.75 in 10.0 mi SSW 23.0 mph 29.9 mph N/A   Clear
7:35 PM 57.9 °F - 25.9 °F 29% 29.76 in 10.0 mi SW 15.0 mph 20.7 mph N/A   Mostly Cloudy
7:55 PM 56.8 °F - 27.3 °F 32% 29.77 in 10.0 mi SW 12.7 mph 18.4 mph N/A   Overcast
8:15 PM 56.3 °F - 28.0 °F 34% 29.78 in 10.0 mi SW 12.7 mph 16.1 mph N/A   Overcast
8:35 PM 55.8 °F - 28.0 °F 35% 29.78 in 10.0 mi SW 13.8 mph - N/A   Overcast
8:55 PM 56.3 °F - 27.1 °F 33% 29.78 in 10.0 mi SSW 16.1 mph - N/A   Overcast
9:15 PM 55.9 °F - 27.5 °F 34% 29.78 in 10.0 mi SSW 15.0 mph 21.9 mph N/A   Overcast
9:35 PM 55.8 °F - 27.9 °F 34% 29.78 in 10.0 mi SSW 16.1 mph - N/A   Overcast
9:55 PM 55.4 °F - 28.2 °F 35% 29.79 in 10.0 mi SSW 16.1 mph 21.9 mph N/A   Overcast
10:15 PM 55.4 °F - 28.6 °F 36% 29.79 in 10.0 mi SW 12.7 mph 20.7 mph N/A   Overcast
10:35 PM 55.4 °F - 29.1 °F 37% 29.79 in 10.0 mi SW 15.0 mph 23.0 mph N/A   Overcast
10:55 PM 55.0 °F - 30.0 °F 38% 29.79 in 10.0 mi SW 11.5 mph 20.7 mph N/A   Overcast
11:15 PM 53.8 °F - 30.6 °F 41% 29.79 in 10.0 mi SW 12.7 mph 17.3 mph N/A   Mostly Cloudy
11:35 PM 54.1 °F - 31.1 °F 41% 29.79 in 10.0 mi SW 12.7 mph 19.6 mph N/A   Overcast
11:55 PM 54.1 °F - 31.8 °F 43% 29.81 in 10.0 mi West 18.4 mph 21.9 mph N/A Rain Light Rain